Milan, NH

4:19 PM EST on December 03, 2016 (GMT -0500)
Berlin Municipal

Weather History for KBML - August, 2014

Change the Weather History Date:

Friday, August 1, 2014

  Actual Average Record
Temperature  
Mean Temperature 65 °F -  
Max Temperature 80 °F 76 °F 90 °F (2006)
Min Temperature 51 °F 49 °F 39 °F (1998)
Growing Degree Days 15 (Base 50)    
Moisture  
Dew Point 56 °F    
Average Humidity 84    
Maximum Humidity 100    
Minimum Humidity 50    
Precipitation  
Precipitation 0.00 in - - ()
Sea Level Pressure  
Sea Level Pressure 30.20 in    
Wind  
Wind Speed 1 mph (South)    
Max Wind Speed 6 mph    
Max Gust Speed -    
Visibility 4 miles    
Events Fog    
Averages and records for this station are not official NWS values.
T = Trace of Precipitation, MM = Missing Value Source: NWS Daily Summary

Daily Weather History Graph

Daily Weather History Graph

Search for Another Location

Airport or City:

Trip Planner

Search our weather history database for the weather conditions in past years. The results will help you decide how hot, cold, wet, or windy it might be!

Date:

Astronomy

Aug. 01, 2014 Rise Set
Actual Time 5:31 AM EDT 8:10 PM EDT
Civil Twilight 4:57 AM EDT 8:43 PM EDT
Nautical Twilight 4:15 AM EDT 9:25 PM EDT
Astronomical Twilight 3:27 AM EDT 10:13 PM EDT
Moon 11:07 AM EDT (8/1) 10:37 PM EDT (8/1)
Length of Visible Light 15h 45m
Length of Day
14h 38m
Waxing Crescent, 27% of the Moon is Illuminated
Aug 1
Waxing Crescent
Aug 3
First Quarter
Aug 10
Full
Aug 17
Last Quarter
Aug 25
New

Hourly Weather History & Observations

Time (EDT) Temp. Dew Point Humidity Pressure Visibility Wind Dir Wind Speed Gust Speed Precip Events Conditions
12:00 AM 55.0 °F 55.0 °F 100% 30.16 in 0.2 mi Calm Calm - N/A Fog Fog
1:52 AM 55.0 °F 55.0 °F 100% 30.17 in 0.2 mi Calm Calm - N/A Fog Fog
2:50 AM 53.6 °F 53.6 °F 100% 30.17 in 0.2 mi Calm Calm - N/A Fog Fog
2:52 AM 54.0 °F 54.0 °F 100% 30.18 in 0.2 mi Calm Calm - N/A Fog Fog
3:52 AM 53.1 °F 53.1 °F 100% 30.19 in 0.2 mi Calm Calm - N/A Fog Fog
4:52 AM 53.1 °F 52.0 °F 96% 30.20 in 0.2 mi Calm Calm - N/A Fog Fog
5:52 AM 51.1 °F 50.0 °F 96% 30.21 in 0.2 mi East 3.5 mph - N/A Fog Fog
6:04 AM 51.1 °F 50.0 °F 96% 30.21 in 0.8 mi Calm Calm - N/A   Overcast
6:18 AM 51.1 °F 50.0 °F 96% 30.21 in 0.2 mi Calm Calm - N/A Fog Fog
6:52 AM 52.0 °F 52.0 °F 100% 30.22 in 0.2 mi Calm Calm - N/A Fog Fog
8:36 AM 55.0 °F 54.0 °F 96% 30.24 in 0.5 mi Calm Calm - N/A Fog Fog
8:50 AM 55.4 °F 55.4 °F 100% 30.23 in 1.5 mi Calm Calm - N/A   Overcast
8:52 AM 55.9 °F 55.0 °F 97% 30.24 in 2.0 mi Calm Calm - N/A   Overcast
9:02 AM 55.9 °F 55.0 °F 97% 30.23 in 3.0 mi Calm Calm - N/A   Mostly Cloudy
9:10 AM 59.0 °F 55.9 °F 90% 30.23 in 4.0 mi Calm Calm - N/A   Scattered Clouds
9:52 AM 66.0 °F 57.0 °F 73% 30.23 in 10.0 mi Calm Calm - N/A   Clear
10:52 AM 72.0 °F 61.0 °F 68% 30.22 in 10.0 mi Calm Calm - N/A   Clear
11:52 AM 75.9 °F 60.1 °F 58% 30.21 in 10.0 mi Calm Calm - N/A   Clear
12:52 PM 78.1 °F 60.1 °F 54% 30.20 in 10.0 mi SW 4.6 mph - N/A   Partly Cloudy
1:52 PM 79.0 °F 59.0 °F 50% 30.19 in 10.0 mi North - - N/A   Partly Cloudy
2:52 PM 77.0 °F 57.9 °F 52% 30.19 in 10.0 mi South 4.6 mph - N/A   Overcast
3:52 PM 77.0 °F 61.0 °F 58% 30.18 in 10.0 mi South 5.8 mph - N/A   Mostly Cloudy
5:52 PM 79.0 °F 59.0 °F 50% 30.17 in 9.0 mi South 5.8 mph - N/A   Partly Cloudy
6:52 PM 73.9 °F 61.0 °F 64% 30.18 in 8.0 mi Calm Calm - N/A   Partly Cloudy
7:52 PM 68.0 °F 64.0 °F 87% 30.20 in 6.0 mi Calm Calm - N/A   Clear
8:52 PM 63.0 °F 62.1 °F 97% 30.21 in 6.0 mi Calm Calm - N/A   Clear
10:52 PM 60.1 °F 57.9 °F 93% 30.22 in 5.0 mi Calm Calm - N/A   Clear
11:52 PM 57.9 °F 57.0 °F 97% 30.23 in 4.0 mi Calm Calm - N/A   Clear